Location: Tierra Monte Subdivision
(35.2092°N, 106.4864°W)
Time: 09:03:39
(UTC+00:00)

Cosmos 2227 Rocket - Pass Details

Date: 30 March 2020
Orbit: 837 x 847 km, 71.0° (Epoch: 04 June)

Event Time Altitude Azimuth Distance (km) Brightness Sun altitude
Exits shadow 11:39:55 18° 220° (SW) 1,922 3.6 -15.8°
Maximum altitude 11:43:58 57° 294° (WNW) 982 2.3 -15.0°
Drops below altitude 10° 11:49:31 10° 13° (NNE) 2,458 5.0 -13.9°
Sets 11:52:01 0° 17° (NNE) 3,397 5.8 -13.4°
